Theta_e
320 326 328 327 327 327 325 327 327 328 329 331 333 333 333 332 331 332 332 333 334 333 330 327 326 326 325 324 323 323 322 322 321 321 320 321 320 320 321 321 323 324 326 330 330 332 334 334 336 335 333 330 326 325 325 325 325 325 325 325 324 325 325 324 324 322 321 322 325 328 331 334 333 330 329 330 331 332 333 333 332 332 331 329 328
320 325 327 327 326 326 326 325 326 328 329 330 331 331 332 331 330 330 330 330 330 328 327 326 325 325 325 325 325 324 323 322 322 321 321 321 320 320 320 320 321 320 323 328 329 331 332 332 334 333 334 332 328 327 327 327 327 327 327 326 326 326 326 326 326 324 323 322 323 325 328 332 333 332 330 329 329 330 333 334 335 335 332 329 329
318 322 325 326 326 326 326 325 325 327 329 331 330 331 331 330 329 328 328 328 327 326 326 326 325 326 326 325 324 323 322 321 321 321 320 320 320 320 320 319 320 320 324 326 328 331 330 331 332 331 333 333 331 329 328 328 327 327 327 328 328 327 328 327 327 326 325 324 323 323 327 329 330 330 332 333 330 329 329 331 332 334 334 333 332
318 320 322 326 325 325 327 326 325 326 328 330 331 331 330 330 329 327 327 326 326 325 326 325 324 324 324 323 322 321 321 321 321 321 322 322 321 320 321 320 320 322 326 328 329 331 330 331 331 330 332 333 331 330 329 328 326 325 326 326 327 328 328 328 328 327 326 326 325 326 331 332 330 327 329 334 334 331 329 328 328 328 330 333 334
317 318 320 324 325 325 327 327 326 325 327 329 331 332 331 330 329 327 327 326 326 325 324 323 323 323 323 323 322 321 322 323 323 326 328 327 324 321 322 321 322 324 328 331 331 330 330 331 330 330 332 332 332 332 329 327 326 324 324 324 325 326 326 327 328 328 328 327 326 329 332 333 333 329 327 331 333 331 331 330 329 327 325 328 332
318 317 317 321 324 324 325 328 327 326 326 328 330 332 332 330 330 328 328 327 326 325 324 324 324 324 324 323 325 325 326 329 329 329 330 329 326 324 324 323 326 328 329 331 332 330 330 331 330 330 332 332 332 332 331 329 327 324 324 324 325 325 325 326 327 328 328 328 328 331 332 332 334 332 329 331 332 330 330 330 330 330 327 325 326
318 316 316 317 321 321 322 325 327 327 326 327 329 331 332 332 331 330 330 330 327 324 325 327 326 325 326 326 328 330 331 332 332 331 329 329 327 326 327 327 329 330 330 331 331 329 328 329 329 330 331 332 332 333 333 332 329 324 321 322 322 323 324 325 326 327 328 328 330 333 333 333 333 334 332 331 333 332 330 330 329 329 329 327 324
320 317 315 316 318 318 318 320 324 326 326 327 328 330 331 332 332 332 332 332 329 325 325 327 326 326 328 329 331 333 333 332 333 332 330 330 329 329 330 330 330 330 330 330 329 326 325 324 324 328 331 331 331 331 333 333 331 324 316 315 316 317 318 320 323 325 327 327 329 331 332 333 332 333 332 332 333 333 332 331 330 329 329 329 328
321 319 315 315 316 315 315 316 320 322 323 326 328 330 331 331 332 332 332 332 329 326 325 326 326 327 330 331 332 333 333 333 333 333 331 331 331 331 331 330 329 328 328 327 326 325 323 320 319 324 328 329 327 329 332 332 328 319 313 312 312 312 313 313 316 320 323 325 327 328 329 331 333 332 331 332 332 332 332 332 332 330 329 329 329
321 320 317 315 315 314 314 314 316 319 320 324 327 330 331 330 330 330 329 329 328 327 327 326 327 329 331 332 333 333 334 334 334 333 331 331 331 331 330 330 328 327 327 326 325 323 321 318 316 317 321 322 321 322 323 322 317 312 311 311 310 310 310 310 311 313 315 318 321 325 327 329 332 331 330 331 331 332 332 332 332 331 329 329 328
322 321 319 316 315 314 314 314 315 317 319 321 324 329 330 330 329 329 328 328 327 328 327 327 329 330 332 333 333 333 334 334 333 332 330 330 330 330 329 328 326 326 326 326 324 322 318 314 313 313 314 314 314 314 313 312 310 309 308 307 307 307 307 307 308 309 310 311 314 317 323 329 330 329 330 331 331 332 332 331 331 331 329 327 327
322 322 320 318 317 316 314 314 314 316 318 318 320 324 327 327 327 327 327 327 327 328 328 327 328 330 333 333 333 333 334 333 332 330 327 327 328 328 326 325 323 321 322 322 321 319 315 311 311 311 311 310 310 309 309 308 306 305 305 304 304 304 304 304 305 305 306 307 310 310 315 326 329 328 329 329 330 331 331 331 331 330 328 326 325
322 322 321 319 318 317 315 314 314 314 316 316 317 319 321 323 324 325 325 326 328 328 327 326 327 330 333 333 333 333 333 332 330 328 327 326 325 325 322 319 318 316 316 315 315 315 312 309 308 307 307 307 306 305 305 304 304 304 304 304 304 304 304 304 304 304 304 304 306 307 309 320 326 327 327 324 326 327 326 327 327 327 326 325 322
322 322 322 320 319 318 316 314 314 314 314 314 315 317 318 320 321 323 324 326 327 325 326 328 327 330 332 333 333 332 331 329 326 325 324 321 319 318 315 313 312 312 311 309 310 309 307 305 304 304 304 304 304 304 303 303 304 304 304 304 304 304 304 304 304 304 304 303 303 304 305 312 316 318 320 319 320 321 320 320 319 321 321 321 320
322 322 322 321 319 318 316 315 314 314 314 313 314 315 317 318 318 320 321 322 323 324 328 332 330 329 331 332 332 331 328 326 323 321 319 314 312 312 311 310 309 307 306 305 305 305 304 304 304 303 303 303 303 303 303 304 304 304 304 304 304 304 304 304 304 304 303 303 303 303 303 305 306 307 311 313 314 313 313 313 312 314 314 314 317
321 321 322 322 321 319 317 316 315 314 314 314 314 314 315 316 315 316 317 317 320 326 329 332 331 329 330 330 329 328 326 324 321 316 314 311 310 310 308 307 305 305 304 304 304 304 304 304 304 303 303 303 303 304 304 304 304 305 305 305 306 305 306 305 305 304 304 303 303 303 303 303 303 303 304 306 307 306 307 307 307 308 307 307 309
319 320 321 322 322 321 319 317 316 315 314 314 314 314 314 315 314 314 315 315 319 326 328 329 329 327 326 325 325 325 323 321 316 312 313 311 309 308 306 305 304 304 304 304 304 304 304 304 304 303 303 304 304 304 305 305 306 306 307 307 307 307 307 307 306 306 305 304 303 304 304 303 303 303 302 303 303 303 303 303 303 304 303 303 303
317 318 319 321 322 321 320 319 317 315 315 314 314 315 315 314 313 313 314 315 317 321 323 323 323 321 320 320 321 320 318 316 313 312 312 309 307 305 304 304 304 304 304 304 304 304 304 304 304 304 304 304 305 306 306 307 307 307 307 307 307 307 307 307 307 307 306 305 305 305 304 304 303 303 303 302 302 302 302 302 302 302 303 303 303
317 317 317 318 320 321 321 319 318 317 315 315 314 315 315 315 314 313 312 314 316 317 317 318 318 317 318 317 317 315 313 312 312 312 310 308 306 304 304 304 304 304 304 304 304 304 304 304 304 304 305 305 306 306 307 307 307 307 307 307 307 307 307 307 307 307 307 306 306 306 305 305 304 303 303 303 303 302 302 302 302 302 302 302 303
317 317 317 317 317 319 320 320 319 318 317 316 315 315 315 315 314 313 312 312 314 315 315 316 316 316 315 314 313 312 312 311 311 310 309 307 304 303 304 304 304 304 304 304 304 304 303 304 304 305 305 306 306 306 306 306 306 306 306 307 307 307 307 307 307 307 307 307 307 306 306 305 305 304 304 303 303 302 302 302 302 302 302 302 302
316 317 316 317 317 317 318 318 319 318 318 318 317 316 315 315 315 314 312 312 313 314 314 314 314 314 312 311 311 311 310 310 309 309 308 306 304 304 304 304 304 304 304 304 304 304 304 304 305 305 306 306 306 306 306 306 306 306 306 306 306 306 306 306 307 307 307 307 307 307 306 306 305 305 305 304 303 302 302 302 302 302 302 302 302
316 316 316 316 317 316 316 317 318 318 318 319 319 319 318 316 316 315 313 312 312 312 313 313 313 312 311 311 310 310 309 309 308 308 307 305 304 304 304 304 304 304 304 304 304 304 304 304 305 306 306 306 306 306 305 305 306 306 306 306 306 306 306 306 306 306 307 306 307 307 307 306 306 305 305 305 303 303 303 302 302 302 302 302 302
315 315 316 316 316 317 317 316 316 317 317 318 319 321 321 319 316 315 315 313 312 312 312 312 312 312 312 311 310 309 309 309 308 308 307 305 304 304 304 304 304 304 304 304 304 304 304 305 305 306 305 305 305 305 305 305 305 305 305 305 305 305 305 306 306 306 306 306 306 306 306 306 306 306 306 305 305 304 303 303 302 302 302 302 302
315 315 315 316 316 316 317 316 316 316 316 317 318 319 320 320 317 317 318 316 313 312 312 312 312 312 312 311 310 309 308 308 308 308 306 304 305 305 305 304 304 305 304 304 304 304 305 305 305 305 305 305 305 305 305 305 305 305 305 305 305 305 305 305 305 305 305 306 306 306 306 306 306 305 305 305 305 304 304 303 303 302 302 302 302
315 315 315 315 316 316 316 316 317 316 316 317 317 317 318 319 319 319 319 317 314 313 312 313 313 312 313 312 311 310 309 308 308 307 305 304 304 305 305 305 305 305 305 305 305 305 305 305 305 305 305 305 305 305 305 305 305 305 305 305 305 304 305 305 305 305 305 305 305 306 305 305 305 304 304 304 304 303 303 302 302 302 303 302 302
315 315 315 315 315 315 316 316 316 316 316 316 316 317 317 317 318 320 319 317 315 314 313 313 313 313 313 313 314 312 310 308 308 307 305 304 304 304 305 305 305 305 305 305 305 305 305 305 305 305 305 305 305 305 305 305 305 305 305 304 304 304 304 304 304 304 305 305 305 305 305 305 305 304 303 303 302 302 301 302 301 301 301 301 302
314 315 315 314 314 315 315 316 316 316 316 316 316 316 317 316 317 319 317 315 316 315 314 313 313 313 313 313 314 313 311 309 308 306 304 303 304 304 305 305 305 306 305 305 305 305 305 305 305 305 305 305 305 305 305 305 305 305 304 304 304 304 304 304 304 304 304 304 305 305 305 305 304 304 303 302 301 301 301 302 303 304 303 303 303
314 314 314 314 314 314 315 315 315 316 316 316 317 316 316 316 316 317 316 315 316 315 314 314 314 313 313 313 313 313 311 309 308 307 304 303 304 304 304 305 305 305 305 305 305 305 305 305 305 305 305 305 305 305 305 305 305 304 304 304 304 304 304 304 304 304 304 304 304 304 305 305 304 304 303 302 301 300 302 304 308 309 308 308 307
314 314 315 315 315 315 314 314 315 315 316 316 316 316 316 316 315 316 317 316 316 315 314 315 315 314 313 314 313 313 311 309 308 307 305 303 304 304 304 304 305 305 305 305 305 304 304 305 305 305 305 305 305 305 305 304 304 304 304 304 304 304 304 304 303 303 303 303 304 304 304 304 304 304 303 302 301 301 303 306 310 310 308 309 308
314 314 314 315 315 315 314 315 315 315 315 315 316 316 316 316 316 316 316 317 316 315 315 315 315 314 313 314 313 312 311 309 308 307 305 303 303 304 304 304 305 305 305 304 305 304 304 305 305 305 305 305 305 305 305 304 304 304 304 304 304 304 304 304 304 303 303 303 303 303 303 304 304 304 304 303 301 300 302 305 310 309 308 311 310
314 314 314 314 315 315 315 315 315 315 314 315 315 316 316 316 316 316 316 317 316 315 315 315 315 314 314 315 314 312 311 310 308 308 306 304 303 303 304 304 305 305 305 304 304 304 304 304 304 304 304 304 304 304 304 304 304 304 304 304 304 304 304 304 304 303 303 303 303 303 303 303 304 304 304 303 302 300 300 303 307 307 308 312 311
314 314 314 314 314 314 314 314 314 314 314 314 315 315 316 316 316 316 316 317 317 316 315 315 315 315 315 315 314 312 311 310 309 308 307 305 303 303 304 304 304 305 304 304 304 303 303 304 304 304 303 304 304 304 304 303 303 303 303 303 303 303 303 303 303 303 303 303 303 303 303 303 303 304 304 303 302 301 299 300 301 302 305 309 309
315 315 314 314 313 314 314 314 314 314 314 314 314 314 315 315 315 316 316 316 317 316 315 315 315 315 315 315 315 313 312 311 310 309 308 306 304 303 303 304 304 304 304 304 304 304 303 303 303 303 303 303 303 303 303 303 303 303 303 303 303 303 303 303 303 303 303 303 302 302 302 303 303 303 303 303 302 300 299 298 298 298 300 303 304
314 314 314 314 314 314 313 313 313 314 314 314 314 314 314 315 315 315 316 316 316 316 315 315 315 315 315 315 315 314 313 311 310 309 308 307 305 304 303 303 303 304 304 304 304 303 303 303 303 303 303 303 303 303 303 303 303 303 303 302 302 302 302 302 303 303 303 303 302 302 302 302 302 303 303 302 301 300 299 298 297 297 297 299 299
313 313 313 313 313 313 313 313 313 313 313 313 314 314 314 314 314 315 315 315 316 316 316 316 316 316 315 315 315 315 314 312 310 309 309 308 306 305 303 303 303 303 303 303 303 303 303 303 302 303 303 303 303 303 302 302 302 302 302 302 302 302 302 302 302 302 302 302 302 302 302 302 302 302 302 301 301 299 298 297 297 296 296 296 297
312 312 312 312 312 312 312 313 313 313 313 313 313 313 314 314 314 314 314 315 315 315 316 316 316 316 315 315 315 315 315 313 311 310 309 308 307 305 304 303 303 303 303 303 302 302 302 302 302 302 302 302 302 302 302 302 302 302 302 302 302 302 302 302 302 302 302 302 302 302 302 302 302 301 301 301 300 298 298 297 297 296 296 296 296
312 311 311 311 311 311 311 311 312 312 312 312 312 312 313 313 313 314 314 315 315 315 316 316 316 316 316 316 315 315 315 315 313 311 309 308 307 306 305 303 303 302 302 302 302 302 302 302 302 302 302 302 302 302 302 302 302 301 301 301 301 301 301 301 301 301 302 302 302 302 302 301 301 301 301 300 299 298 297 297 296 296 296 296 295
312 311 311 311 311 310 310 310 310 311 311 311 311 311 312 312 313 313 314 314 315 315 315 316 316 317 317 316 315 315 314 315 314 312 310 309 308 307 306 305 303 302 302 302 301 301 301 301 302 301 302 302 302 301 301 301 301 301 301 301 301 301 301 301 301 301 301 302 302 301 301 301 301 301 300 300 299 298 297 296 296 295 295 295 295
312 312 311 311 310 310 310 310 310 310 310 310 310 310 311 311 312 313 313 314 315 316 315 315 316 317 317 316 315 315 315 315 315 314 311 309 308 307 306 306 304 302 301 301 301 300 301 301 301 301 301 301 301 301 301 301 301 301 301 300 300 300 300 300 300 301 301 301 301 301 301 301 301 300 300 299 299 298 297 296 296 295 295 295 295
312 312 312 311 311 310 310 309 310 310 310 310 310 310 310 310 311 312 312 313 314 316 316 315 316 317 317 316 315 316 315 316 316 315 313 310 309 307 306 306 305 302 301 301 301 300 301 301 301 301 301 301 301 301 300 301 301 300 300 300 300 300 300 300 300 300 300 300 301 301 301 301 301 300 299 299 298 297 296 296 295 295 295 295 295
311 312 312 312 311 311 310 310 310 309 309 309 309 309 309 310 310 310 311 311 313 314 314 314 316 317 317 316 315 316 316 316 316 316 315 312 309 307 306 306 305 304 302 301 301 300 301 300 300 300 300 300 301 301 301 301 300 300 300 299 299 300 299 299 300 300 300 300 300 300 301 300 300 300 299 299 298 297 296 296 295 295 295 295 295
312 312 312 312 311 311 310 310 310 310 309 309 309 309 309 309 309 309 310 310 311 312 312 313 315 316 315 315 316 316 316 317 317 317 316 315 312 309 307 305 305 305 303 301 300 300 300 300 300 300 300 300 300 300 301 300 300 299 299 299 299 299 299 299 299 299 299 299 300 300 300 300 300 300 299 298 297 296 296 295 295 295 295 295 295
312 312 311 311 311 310 310 310 310 310 310 309 309 308 308 308 308 308 309 309 310 310 310 312 313 313 313 314 315 315 316 317 317 317 317 316 314 311 308 306 305 305 304 302 300 300 300 300 300 299 299 299 299 300 300 300 300 299 299 298 298 298 298 298 298 299 299 299 299 299 300 300 300 299 298 298 297 296 296 295 295 295 294 294 294
311 311 311 311 310 310 310 310 310 310 310 310 309 309 308 308 308 308 308 308 308 309 309 310 310 310 311 311 312 313 314 315 316 317 317 317 316 314 311 308 306 304 304 303 301 300 300 300 300 299 299 299 299 299 300 300 299 299 298 298 298 299 299 299 299 299 299 299 299 299 299 300 299 299 298 297 297 297 296 296 295 295 295 294 294
312 311 311 311 310 310 310 310 309 309 309 309 309 309 308 308 307 307 308 307 308 308 308 308 309 309 309 310 310 311 311 312 313 314 315 316 317 316 314 312 308 305 303 303 302 301 300 300 300 299 299 299 299 299 300 300 299 299 299 298 299 300 300 300 300 299 299 299 299 299 299 300 299 298 298 297 297 297 297 296 296 296 295 294 294
311 311 310 310 310 309 310 310 310 309 309 308 308 308 308 307 307 307 307 307 307 307 307 307 308 308 308 308 309 309 309 310 311 312 313 314 315 316 316 315 312 308 304 302 302 301 300 300 300 299 299 299 299 299 299 299 299 298 299 299 300 300 300 301 300 299 300 299 299 299 299 299 299 298 298 298 297 297 297 297 296 296 295 294 294
311 311 310 310 309 309 310 310 310 310 309 309 308 307 307 306 306 306 306 306 306 306 307 307 307 307 307 307 308 308 308 308 309 309 310 311 313 314 315 315 314 311 307 304 301 301 301 300 300 299 299 299 298 298 299 299 299 298 299 299 299 299 300 301 300 300 300 299 299 299 299 299 299 298 298 298 298 298 298 298 297 296 295 294 294
310 310 310 310 309 309 310 310 310 310 309 309 309 308 307 306 305 305 305 305 305 305 306 306 306 306 306 306 306 306 307 307 307 307 308 308 310 311 313 314 315 313 310 307 303 301 300 300 300 299 298 298 298 298 298 299 299 299 299 299 299 299 299 300 300 300 300 300 299 299 299 299 298 298 298 298 298 298 298 298 298 297 295 294 293
310 310 310 310 310 310 311 311 311 310 310 309 309 308 308 307 305 305 304 305 305 305 305 305 305 305 305 305 305 305 306 306 306 306 306 306 307 308 310 311 313 313 312 310 306 302 300 299 300 299 298 298 298 298 298 298 299 299 298 298 298 298 298 298 299 299 299 300 300 300 299 299 298 299 298 298 298 299 298 298 298 297 296 294 293
308 309 309 309 309 310 311 311 311 311 310 310 309 309 308 307 307 306 304 304 304 304 304 304 304 304 304 304 304 304 305 305 305 305 305 305 305 306 307 308 310 311 312 311 309 304 301 299 299 299 298 298 297 297 297 297 298 298 298 298 298 298 298 298 298 298 298 298 299 299 300 300 299 299 298 298 298 299 298 298 298 297 296 295 294
307 307 308 308 309 310 310 310 310 310 310 310 309 309 308 308 307 306 306 305 304 303 303 303 304 304 303 303 303 304 304 304 304 305 305 305 305 305 305 305 306 308 309 310 310 307 303 301 299 298 297 297 297 297 297 296 297 297 297 298 298 298 298 298 298 299 298 298 298 299 299 299 299 299 298 298 298 298 298 298 298 297 296 295 294
Wind_Speed
14 15 17 20 20 20 20 20 20 19 19 18 17 17 15 14 13 13 12 12 11 10 10 10 10 9 9 8 7 7 6 5 5 4 3 3 3 2 2 2 2 2 3 3 3 3 2 2 2 2 3 4 5 5 4 5 5 5 6 6 6 7 7 7 7 7 7 6 6 5 6 7 6 6 7 7 7 7 6 5 5 5 4 4 3
13 16 16 19 20 20 20 20 21 19 19 18 18 17 16 15 14 13 12 11 11 10 10 10 10 9 9 8 7 7 6 5 5 5 4 4 4 3 2 2 2 1 3 3 3 3 3 2 2 2 2 3 3 3 3 3 4 4 5 5 5 5 5 5 5 6 6 5 5 5 5 6 6 6 6 5 6 5 5 4 3 4 4 3 3
11 16 16 19 20 20 20 20 21 20 19 18 18 18 17 16 14 13 12 12 11 11 11 10 10 9 9 8 8 7 6 6 6 5 5 5 5 4 4 3 2 2 3 2 2 3 3 3 3 3 3 2 1 1 1 2 3 3 3 3 4 3 3 4 4 4 4 4 4 4 4 5 5 5 5 4 4 4 4 3 3 3 4 3 2
9 15 17 19 20 20 20 19 21 20 19 19 18 18 17 16 15 14 14 13 13 12 12 11 10 10 10 9 9 8 7 7 7 6 5 5 5 5 5 4 3 3 3 2 2 3 4 4 5 5 4 3 2 2 1 1 1 2 2 2 2 2 2 2 2 2 2 3 2 3 3 4 4 4 4 3 3 3 3 2 2 2 2 3 2
8 14 16 18 21 20 20 19 20 20 19 19 18 19 17 16 16 16 15 15 14 13 12 11 11 10 10 9 8 7 7 7 7 5 5 5 6 6 5 4 3 3 3 3 3 4 5 6 7 6 5 5 4 4 4 3 1 1 2 1 0 0 1 1 1 1 1 2 2 2 2 2 3 3 3 3 3 3 3 3 3 2 1 1 1
8 12 15 18 21 20 20 19 19 20 19 19 19 19 18 17 17 17 17 16 15 15 14 13 12 11 10 9 7 7 7 6 6 6 6 5 6 6 5 4 3 4 4 4 5 5 6 7 6 6 6 6 6 6 6 5 3 3 4 3 3 3 2 2 2 2 2 1 1 2 1 0 2 3 3 3 4 4 4 4 4 3 2 1 0
8 12 15 17 20 21 20 20 20 19 19 19 19 19 19 18 18 18 18 17 17 16 15 14 13 12 10 8 6 7 6 7 8 8 7 6 6 6 5 4 4 5 5 5 7 8 8 7 6 6 7 7 7 7 8 8 6 6 7 7 7 6 5 5 4 4 4 3 2 1 0 0 1 3 3 4 4 4 5 5 5 5 4 3 2
9 12 16 18 20 20 20 20 20 20 19 20 20 20 19 19 19 19 19 18 18 17 16 15 13 11 8 7 7 8 8 9 10 9 8 7 6 6 6 6 6 7 7 8 10 10 9 9 8 7 7 8 8 8 9 9 9 10 11 10 9 9 8 8 7 6 6 6 5 4 3 1 2 4 5 5 5 5 5 5 5 6 5 5 4
11 11 16 18 20 20 19 20 20 20 20 20 20 20 19 20 19 19 19 19 18 17 16 14 12 10 8 9 9 10 11 11 11 10 9 8 7 7 7 7 8 9 10 11 12 11 11 11 10 9 9 10 9 9 10 11 12 13 13 11 11 11 10 10 9 9 9 8 8 7 5 1 1 5 6 6 6 6 5 4 4 6 5 6 6
11 12 15 18 19 19 19 19 20 20 20 20 20 20 20 20 20 20 19 19 17 16 15 13 11 10 10 11 11 12 13 13 12 12 11 9 9 9 9 9 10 11 12 13 13 13 13 13 12 11 12 12 12 12 12 13 14 14 13 12 11 11 11 10 10 10 10 11 10 9 6 2 3 7 8 7 8 8 8 7 7 8 7 7 8
12 13 15 18 19 18 19 19 20 20 20 21 21 21 20 20 20 20 20 19 18 16 15 13 12 12 13 13 13 14 14 14 14 14 13 11 11 11 11 11 12 13 14 14 13 13 13 13 12 12 12 13 13 13 13 14 13 12 11 10 10 10 10 10 10 10 10 11 10 10 7 3 6 10 9 10 9 9 9 9 9 10 10 9 9
14 14 16 18 17 17 18 19 20 20 21 21 20 21 21 21 21 21 21 20 18 17 16 15 15 15 15 15 15 16 17 16 16 16 15 14 13 13 14 15 15 15 15 15 14 13 13 13 11 10 11 11 12 12 12 12 11 9 8 7 6 5 6 6 7 8 9 10 10 10 8 6 9 10 10 12 10 9 10 9 8 9 9 9 10
15 16 17 18 17 16 18 20 20 20 21 21 20 21 21 21 21 21 21 20 19 18 16 17 17 17 16 17 17 18 19 19 18 18 18 17 16 16 16 16 15 15 15 15 14 13 12 11 9 8 8 9 10 10 9 8 7 5 4 3 3 3 3 3 4 5 6 7 8 9 9 10 12 13 13 14 12 11 11 10 10 10 10 10 11
15 17 18 19 18 17 18 21 21 21 21 21 20 21 21 21 21 21 21 21 20 18 17 17 18 18 18 19 19 20 21 21 20 19 19 17 15 15 14 14 13 13 13 13 12 11 11 9 7 6 6 7 7 6 6 5 4 4 3 3 3 2 2 3 2 3 3 4 5 7 9 11 13 13 14 13 12 12 12 12 12 13 12 12 12
15 18 19 19 19 18 19 21 22 22 21 21 21 21 21 21 22 21 21 21 21 19 19 19 19 20 21 21 21 22 22 22 20 18 17 14 12 12 12 12 12 11 10 10 10 10 9 7 5 4 4 5 4 4 4 4 4 4 4 3 3 3 3 3 3 3 3 3 4 5 8 9 9 10 12 12 13 13 13 13 13 13 13 12 12
15 17 19 20 20 20 21 22 22 22 22 22 21 22 22 22 22 21 20 21 21 20 21 22 21 22 22 22 22 23 23 22 20 16 13 12 11 11 11 11 10 9 9 9 8 8 7 5 4 4 4 4 4 4 4 4 4 4 4 4 4 4 4 4 4 4 4 4 4 5 6 6 6 8 10 10 12 12 12 13 13 13 13 11 10
15 17 19 20 21 22 22 23 23 23 23 23 22 23 23 22 22 21 21 21 22 22 23 23 23 23 23 23 23 23 24 23 20 14 12 13 11 12 11 10 10 9 9 8 8 8 6 5 5 5 5 5 5 5 4 4 4 4 4 4 4 4 4 4 4 4 4 4 5 6 6 5 5 7 7 8 9 10 9 10 10 10 11 10 10
15 17 19 21 22 23 23 24 24 25 25 24 24 24 24 23 22 22 22 22 23 24 24 24 24 23 22 23 23 23 24 23 20 14 13 13 12 12 12 11 10 10 9 9 9 8 7 7 7 6 6 6 5 5 4 4 4 4 4 5 4 4 4 5 5 5 5 5 6 7 6 6 6 7 7 7 8 8 8 8 9 9 9 10 10
16 17 20 21 23 24 25 25 25 26 27 26 26 26 25 24 24 23 23 23 23 24 23 23 23 22 22 22 23 23 22 21 19 15 14 14 13 13 12 11 11 10 10 10 9 9 8 8 8 7 7 6 6 5 5 5 5 5 5 5 5 5 5 5 5 5 5 6 7 7 7 7 7 8 8 8 8 8 9 9 9 9 9 9 10
17 18 20 22 23 24 26 26 26 26 27 27 27 27 27 26 25 25 24 24 24 24 23 23 22 22 22 22 22 21 20 20 18 16 15 14 14 14 13 12 11 11 11 10 10 10 9 9 9 8 7 7 6 6 6 6 6 6 6 6 5 5 5 5 5 5 6 6 7 7 7 8 8 9 9 9 9 9 9 10 10 10 10 10 10
19 20 21 23 24 25 26 27 27 27 26 27 27 27 28 28 28 27 26 26 26 25 25 24 24 23 23 22 21 21 20 19 17 17 16 16 15 15 14 13 13 12 12 12 11 11 10 10 9 8 8 7 7 6 6 6 6 5 5 5 5 5 5 5 5 6 6 7 7 8 8 9 9 10 10 10 10 10 11 11 11 11 11 11 11
22 22 22 23 25 26 27 28 28 28 27 26 26 26 27 28 29 29 28 27 27 27 27 26 26 25 25 23 22 21 20 19 19 19 18 17 17 16 16 15 14 14 13 13 12 12 11 11 10 9 9 8 7 7 6 6 6 5 5 5 5 5 5 5 5 6 6 7 7 8 9 9 10 11 11 11 11 11 11 11 12 12 12 12 12
24 23 23 24 26 27 27 28 28 29 29 28 27 26 26 28 30 30 30 30 29 28 28 28 27 27 27 25 23 22 21 21 21 20 19 19 18 18 17 17 16 15 15 14 14 13 13 12 11 10 10 9 8 7 7 6 6 5 5 5 5 4 4 5 5 5 6 6 7 8 8 9 10 11 12 12 12 12 12 12 12 13 13 13 13
24 24 24 25 27 28 28 28 28 29 31 31 30 29 28 28 29 30 30 31 31 30 29 29 30 29 29 27 26 24 23 23 23 22 21 21 20 20 19 19 18 17 16 16 15 15 14 13 12 12 11 10 9 8 7 6 6 5 5 5 4 4 4 4 5 5 5 6 6 7 8 9 9 10 11 11 11 12 12 12 13 13 14 14 14
24 25 27 28 28 28 29 28 29 31 32 33 33 32 31 30 29 28 28 30 33 32 32 32 31 31 30 28 26 26 26 25 25 23 22 23 22 22 22 21 20 19 19 18 17 17 15 14 13 13 11 10 9 8 8 7 6 5 5 5 4 4 4 4 5 5 5 5 6 6 7 8 8 9 10 10 11 11 11 12 13 13 13 13 14
26 25 26 28 27 28 29 29 30 32 33 34 34 34 33 32 30 28 30 33 35 34 34 33 33 33 31 28 25 25 27 27 26 24 24 25 25 24 24 23 22 22 21 20 19 18 16 15 15 13 12 11 10 9 8 7 6 6 5 5 4 4 4 4 5 5 5 5 5 6 7 7 8 8 9 10 10 10 10 10 11 12 12 12 13
28 26 25 26 27 27 29 30 32 33 34 35 36 36 35 34 32 31 34 37 37 37 36 35 34 34 33 31 27 26 28 28 27 26 25 26 27 26 26 25 24 23 22 22 21 19 17 17 16 15 13 12 11 10 9 8 7 6 5 5 5 4 4 4 5 5 5 5 5 6 6 7 8 8 9 9 10 9 9 9 9 10 10 9 11
29 28 26 26 27 28 29 30 32 33 34 35 37 38 37 36 35 35 37 38 39 39 38 37 36 35 35 33 30 29 29 28 28 27 26 28 29 28 27 26 25 24 23 23 22 20 19 19 18 16 14 13 12 11 10 9 8 7 6 5 5 4 4 4 4 5 5 5 6 6 7 7 8 8 9 9 10 9 7 6 5 5 5 5 8
28 27 27 26 26 28 29 30 32 33 34 35 37 39 39 39 38 38 37 37 40 41 39 39 37 36 37 35 32 32 30 29 29 28 28 30 30 30 29 28 27 25 24 24 23 21 21 21 18 17 16 15 13 12 11 10 8 7 6 6 5 5 4 4 5 5 6 6 6 6 7 7 8 8 9 9 9 8 6 5 4 4 5 4 6
25 25 26 26 26 27 29 30 31 33 34 35 38 39 40 40 40 41 38 37 40 41 40 41 39 38 38 37 34 33 32 31 31 30 30 31 32 32 31 30 28 26 25 25 24 23 23 22 20 19 17 16 15 13 12 11 9 8 7 7 6 5 5 5 5 5 6 6 6 7 8 8 9 9 10 10 10 9 7 5 4 5 4 3 5
27 27 26 25 25 27 27 28 29 31 34 36 37 38 40 41 41 41 40 38 39 41 42 42 41 40 40 38 35 33 33 33 33 32 32 32 33 33 33 31 29 27 26 26 25 24 24 22 21 20 18 18 16 15 13 12 11 10 8 8 7 6 5 5 5 6 6 7 7 7 8 9 9 10 10 10 11 10 9 8 6 5 4 3 3
31 31 29 28 28 27 27 27 28 30 33 35 37 38 39 40 41 41 42 41 38 40 43 42 42 42 42 40 36 35 35 35 35 34 33 33 34 35 34 32 30 28 27 27 26 26 25 24 23 22 20 19 18 16 15 13 12 11 10 9 8 7 6 6 6 6 6 7 7 8 8 9 9 10 11 11 11 10 11 11 10 8 6 4 4
32 31 31 31 32 30 29 28 28 29 30 33 35 37 38 39 41 41 42 43 41 41 42 43 43 43 43 41 38 36 37 37 37 37 35 35 35 35 34 33 31 30 29 29 28 27 26 25 24 23 22 21 19 18 16 15 14 12 11 10 9 8 7 7 7 7 7 7 8 8 9 9 10 10 11 10 10 10 10 11 11 11 10 8 7
29 30 30 31 32 33 32 31 30 30 30 31 33 35 37 39 40 41 42 43 43 43 43 43 44 44 44 43 40 39 39 39 39 39 37 36 36 35 35 34 33 32 30 30 29 28 28 26 26 25 24 23 21 19 18 17 16 14 13 12 11 10 9 8 7 7 7 8 8 9 9 10 10 10 10 11 10 10 10 10 11 11 11 11 12
22 25 26 27 28 30 32 33 33 32 31 32 32 33 35 38 40 41 42 43 43 43 43 44 45 45 45 43 42 41 40 40 41 41 39 37 37 36 36 36 35 33 32 31 30 29 29 28 28 27 26 25 23 21 20 19 17 16 15 14 12 11 10 9 8 8 8 9 9 9 10 10 11 10 11 11 10 10 10 10 10 10 11 12 12
17 19 21 22 23 25 28 31 33 33 32 33 32 32 34 37 39 41 42 43 43 43 43 44 45 45 44 44 44 43 42 41 42 42 40 38 38 37 36 36 36 34 33 32 31 31 31 30 29 29 27 26 25 23 22 21 19 18 17 15 14 12 12 10 10 10 9 10 10 10 11 11 11 11 11 11 10 10 10 10 9 9 10 10 11
17 17 17 19 20 21 23 26 28 30 31 32 32 32 34 37 39 41 42 44 44 43 43 43 45 45 44 46 44 43 43 42 42 43 42 40 39 39 37 37 37 35 35 34 33 33 32 31 30 30 29 28 27 24 23 23 21 20 18 17 15 14 13 12 11 11 11 11 11 11 11 11 11 12 12 12 11 10 10 10 10 10 10 10 11
17 17 16 16 17 18 21 22 22 24 26 28 30 32 34 35 37 40 42 44 44 44 44 44 44 45 46 47 44 43 43 42 43 43 43 42 41 40 39 38 37 36 37 36 35 35 34 32 31 30 30 29 28 26 25 25 23 21 20 18 17 16 15 14 13 13 13 13 12 12 12 11 12 13 13 12 12 11 10 11 11 11 11 11 11
13 15 15 15 15 15 18 20 19 20 21 23 26 29 31 33 36 40 42 43 42 43 45 45 45 44 45 46 44 43 44 43 44 43 43 43 43 42 41 40 38 37 38 38 37 37 36 34 32 31 31 31 30 28 27 26 24 22 21 20 19 17 17 16 15 15 15 14 13 13 13 13 13 13 13 13 13 12 11 12 12 12 12 12 12
8 11 12 12 12 12 14 17 17 17 19 20 22 25 27 30 33 37 40 41 40 39 42 45 44 40 40 44 45 45 45 44 44 44 43 44 44 43 43 42 40 38 39 39 39 39 38 35 34 33 33 33 32 31 30 28 26 24 23 21 20 19 19 18 17 17 16 15 14 14 14 14 13 13 13 13 13 13 13 13 13 13 13 13 13
5 4 5 7 9 10 11 14 14 15 16 18 20 21 23 25 28 31 34 37 39 39 41 43 39 34 38 46 48 48 47 46 45 44 44 44 45 45 44 44 41 40 40 40 40 40 38 36 35 35 34 34 34 33 32 30 27 26 24 23 22 22 21 19 19 19 18 17 16 16 15 15 14 13 14 14 13 13 14 14 14 14 14 14 15
13 10 7 4 4 7 9 10 12 13 13 14 16 18 19 21 23 26 28 31 35 38 40 40 36 34 42 49 49 49 49 47 47 46 45 45 45 46 46 46 43 41 41 41 41 41 40 39 38 37 36 35 36 35 34 32 29 28 26 24 23 23 23 22 21 21 20 19 18 17 16 15 15 14 14 14 13 13 14 14 14 14 15 15 15
20 17 14 9 4 2 5 7 10 11 11 12 13 15 16 18 20 22 25 27 30 33 35 37 38 39 43 45 47 49 49 48 48 47 46 46 45 46 47 47 45 43 43 42 42 43 42 41 41 40 38 37 37 37 36 34 31 29 26 23 22 22 22 23 25 23 21 21 20 19 18 16 15 15 15 15 14 14 14 14 14 14 15 15 15
25 23 21 16 11 6 3 3 6 8 9 10 10 11 13 15 17 19 22 24 27 30 32 33 36 38 39 40 43 45 46 48 48 47 47 46 45 45 47 48 47 46 45 44 44 44 44 44 43 42 41 40 40 40 38 35 33 31 26 21 18 17 17 20 23 24 23 23 22 20 19 17 16 15 15 16 15 15 15 16 16 16 17 16 16
27 27 26 23 19 14 9 5 3 4 6 8 8 9 11 12 14 16 18 20 23 26 28 30 32 33 34 35 36 38 40 42 44 45 45 45 46 46 47 48 48 48 47 46 46 45 45 45 45 45 44 43 42 42 40 37 36 35 30 23 17 15 16 16 16 18 21 21 20 20 19 17 16 16 17 17 17 17 17 18 18 19 18 18 17
28 27 27 26 23 20 17 13 9 5 4 5 5 7 9 11 12 14 16 19 21 23 24 26 28 29 29 30 31 32 34 35 37 40 41 43 45 46 47 48 49 49 49 48 47 47 47 47 47 47 47 45 44 44 42 39 38 38 36 32 27 21 18 18 16 15 17 19 19 19 19 18 17 17 18 19 18 18 18 18 19 19 19 19 19
28 28 28 28 27 25 25 23 19 15 10 7 5 4 6 8 10 12 14 17 20 21 22 24 25 26 27 27 27 29 29 30 31 34 36 39 41 44 46 48 49 50 50 50 49 49 49 48 48 48 47 46 46 46 45 42 40 40 39 38 37 31 23 21 19 16 14 16 18 18 18 18 18 18 20 20 19 19 19 19 19 19 18 19 20
27 28 29 30 29 29 29 28 27 25 21 17 11 7 5 6 8 10 12 13 16 18 19 22 25 25 26 26 26 27 27 26 26 27 30 32 36 40 43 46 49 50 51 51 51 51 50 49 49 48 48 48 48 48 47 45 44 42 41 40 40 38 33 28 25 21 16 14 15 18 19 19 19 20 21 22 20 20 21 20 19 19 19 20 20
26 27 28 29 30 30 30 30 30 30 28 26 21 16 11 8 8 8 10 11 13 15 17 20 23 24 25 25 25 26 26 25 25 25 26 27 29 33 38 43 46 48 51 52 52 51 51 51 50 50 50 50 50 49 48 48 47 44 43 42 41 40 38 36 32 28 24 19 16 18 20 20 21 22 22 23 21 20 21 22 21 20 21 21 21
26 27 27 28 29 30 31 32 32 32 31 30 28 24 20 16 13 10 10 10 11 13 15 17 20 22 24 24 24 25 25 24 23 23 24 25 25 28 32 37 41 45 49 51 51 51 52 53 51 50 50 50 50 50 49 48 48 46 45 44 43 42 41 41 39 36 32 28 23 21 21 21 22 23 22 22 22 21 22 23 22 22 22 22 22
25 25 26 28 28 30 31 31 32 32 31 30 29 28 26 23 20 16 14 13 12 13 14 15 16 18 22 23 24 24 24 23 22 22 22 22 23 24 27 30 35 39 44 48 50 51 53 53 52 51 51 51 51 50 50 49 47 47 47 47 46 45 43 42 40 38 37 34 30 27 25 24 23 23 23 22 22 21 22 24 24 23 23 23 23
Wind_Direction
200 203 198 197 201 202 201 202 204 200 195 191 192 193 196 199 200 200 197 198 198 196 193 188 184 181 179 179 183 185 187 194 202 201 200 194 196 186 174 159 143 133 121 127 126 125 134 117 114 76 60 71 82 82 78 78 77 76 74 74 71 68 67 66 67 68 66 66 67 54 46 48 51 55 56 60 68 78 87 94 102 107 119 136 134
203 207 201 198 202 204 204 205 206 204 199 194 194 193 195 198 200 200 197 197 195 193 188 185 185 186 188 191 195 200 204 210 217 219 221 217 221 217 214 201 188 165 135 148 150 160 172 173 192 173 120 98 84 95 98 85 79 76 74 72 69 66 62 61 62 65 67 64 62 53 43 35 35 43 49 51 59 71 80 82 76 81 99 120 123
211 212 206 201 203 204 207 208 209 207 201 196 194 193 195 196 197 196 194 193 190 189 188 190 192 194 197 202 205 209 213 218 224 227 227 222 224 221 220 219 214 188 160 168 167 185 196 189 207 204 175 152 117 142 127 97 85 81 77 76 74 72 64 60 61 62 64 64 64 56 45 25 12 18 33 42 45 52 60 61 52 55 75 88 86
222 216 212 205 205 206 207 209 211 210 205 198 195 193 195 194 194 192 190 190 190 193 196 200 201 203 206 210 213 216 225 229 230 229 231 225 223 222 218 222 215 191 173 183 188 200 211 207 220 221 202 205 231 240 211 158 85 72 67 78 82 81 83 76 72 71 72 71 72 58 38 11 349 350 3 22 30 31 28 29 34 36 55 71 76
228 220 217 209 207 209 208 210 212 213 208 202 197 195 194 192 192 190 189 191 194 200 203 208 209 212 215 220 225 231 235 234 231 219 220 220 222 225 220 221 212 190 174 188 207 217 224 225 232 235 229 235 241 238 225 222 315 6 356 1 2 109 143 147 132 117 96 90 86 73 56 9 337 337 340 341 338 338 345 348 351 359 28 65 108
227 221 218 214 211 212 211 211 213 214 211 207 203 198 197 193 192 191 192 195 200 204 207 213 216 216 220 228 237 244 238 226 224 211 211 220 223 224 220 218 204 193 191 197 209 222 231 234 239 244 247 250 250 244 236 239 271 313 307 295 283 267 247 226 199 197 177 158 113 79 69 69 334 322 310 314 322 317 320 325 324 322 331 335 242
229 220 216 217 215 217 214 213 214 215 214 212 208 202 201 198 196 195 196 200 204 206 208 213 218 219 222 229 235 238 230 218 222 220 215 221 225 220 214 211 206 205 203 210 218 230 239 243 246 249 253 255 257 252 245 244 259 295 299 287 279 269 259 247 231 216 208 200 162 120 261 224 294 304 299 300 312 311 307 306 305 300 301 299 288
234 220 215 217 218 223 219 216 216 217 217 214 212 208 205 203 202 200 202 204 206 207 208 212 219 223 222 226 224 220 224 224 228 230 221 219 222 214 209 207 210 215 214 226 236 244 251 253 251 252 255 256 262 261 252 246 260 287 293 286 278 271 264 256 246 235 227 219 206 195 209 221 286 286 287 286 291 297 299 299 292 282 282 284 284
241 224 216 216 219 225 223 219 216 218 219 216 215 212 210 209 208 207 208 209 210 211 212 216 220 224 220 222 219 217 223 228 231 232 228 221 219 214 215 217 221 230 233 242 250 254 259 260 257 254 256 258 263 262 255 255 268 284 287 283 278 273 267 260 253 245 241 234 227 219 220 201 283 275 276 272 272 275 278 284 283 278 279 283 283
242 228 218 217 220 225 224 221 217 218 219 218 217 215 215 214 214 213 214 215 216 217 219 220 221 222 218 219 219 220 225 228 230 232 234 226 222 223 226 234 238 243 246 252 258 260 262 263 261 257 258 261 265 267 266 269 276 282 282 280 276 272 268 262 255 248 246 242 237 233 226 193 228 255 265 265 264 264 263 261 267 275 279 282 283
237 228 222 220 222 225 222 222 219 218 218 220 219 218 220 220 219 218 219 220 221 222 223 222 220 219 215 217 219 222 226 229 232 236 241 236 233 235 238 247 250 251 251 255 258 261 264 266 266 262 261 265 270 273 274 277 279 281 280 278 272 267 264 259 255 250 247 245 242 236 218 186 238 248 256 257 254 254 254 254 260 269 272 275 276
235 229 226 223 226 226 220 222 221 219 219 222 221 220 223 223 224 223 223 224 223 224 224 220 215 214 213 216 220 223 228 233 240 247 250 247 245 245 248 253 254 254 254 255 256 259 265 269 271 264 262 267 271 274 276 278 279 280 277 272 265 257 253 248 250 248 247 245 240 236 210 193 228 234 242 247 245 249 250 251 255 262 268 268 268
233 229 228 227 230 228 219 221 223 222 222 224 223 222 224 224 225 224 224 223 221 223 222 219 213 211 213 217 221 226 233 241 249 254 255 253 251 251 253 254 253 253 254 255 254 256 262 268 269 259 259 264 267 269 271 273 273 271 266 258 250 237 230 223 230 233 240 243 236 232 211 204 220 224 233 241 242 249 252 253 255 257 263 266 269
233 231 230 230 232 231 222 222 224 224 224 225 224 224 225 225 226 224 222 219 218 218 216 217 214 212 216 220 223 229 238 247 252 254 255 255 251 249 250 250 248 250 254 255 253 254 258 263 262 256 259 259 259 258 254 254 251 252 252 250 246 236 230 216 213 213 218 226 224 223 214 216 228 230 237 242 245 252 257 261 264 262 264 268 274
234 233 232 232 233 232 226 225 226 225 225 226 224 225 226 227 228 226 221 217 215 212 209 213 214 216 220 223 227 235 244 250 253 254 255 255 248 244 242 244 244 246 251 252 251 250 251 253 253 250 249 243 238 237 235 239 244 249 251 251 248 243 241 233 223 221 216 213 215 222 225 234 245 246 246 249 254 262 268 273 276 275 275 275 275
235 235 234 234 234 234 230 227 228 226 226 227 225 225 227 228 229 227 222 216 212 207 208 215 217 220 225 229 234 243 251 255 258 256 251 249 245 243 239 238 239 237 241 244 243 239 236 235 232 228 226 228 230 235 241 246 251 253 257 257 257 253 249 246 239 232 228 224 223 231 239 245 253 256 256 259 266 274 278 282 286 284 285 285 278
237 237 235 234 235 236 234 230 228 227 228 228 226 226 227 228 228 227 225 219 213 208 211 217 220 225 229 235 240 246 253 257 260 256 246 246 243 242 238 232 230 227 228 229 227 222 216 213 215 219 223 230 236 242 249 253 260 263 267 268 268 266 261 258 255 249 243 238 237 241 248 252 256 259 264 269 275 283 288 289 290 289 290 292 288
242 239 235 235 235 236 237 234 229 226 228 228 227 227 228 227 226 226 227 223 218 215 217 220 224 230 234 238 242 246 251 255 258 254 245 243 240 240 236 228 224 219 217 215 214 210 205 208 211 217 224 230 236 243 248 255 263 268 273 275 274 271 267 263 259 258 254 250 250 255 260 261 262 264 267 271 276 285 292 294 293 294 298 301 300
249 242 237 235 235 236 237 237 233 228 227 228 227 227 228 227 225 224 225 225 223 223 224 225 230 235 239 242 244 247 252 255 255 251 245 240 237 237 233 226 221 216 212 209 207 206 205 209 212 214 218 223 228 233 241 249 256 262 267 269 271 269 267 264 260 258 259 260 262 267 271 269 270 271 274 278 282 288 292 293 294 297 301 301 301
256 248 241 238 237 236 235 236 236 232 229 228 228 227 227 227 226 225 224 225 225 227 228 230 234 239 242 245 247 249 253 255 251 245 241 238 236 233 229 223 218 214 210 208 207 207 208 210 211 212 213 216 221 227 235 243 249 254 257 260 262 265 265 264 264 263 262 265 268 272 274 276 278 279 281 285 289 290 291 292 293 296 296 296 296
257 253 247 242 239 239 237 236 236 236 233 229 229 229 228 227 225 226 225 225 225 227 230 231 234 238 242 244 245 247 248 249 245 240 236 234 233 230 226 221 217 214 210 210 209 208 210 210 210 211 212 214 219 226 233 239 244 247 251 254 256 258 258 259 258 260 261 264 268 272 275 278 280 282 285 288 291 292 292 293 294 294 295 294 293
259 254 250 247 244 242 240 237 237 238 236 231 229 229 230 229 226 226 227 227 226 227 229 231 233 236 239 240 241 242 241 243 241 237 233 231 229 227 224 220 217 214 212 211 211 210 211 210 211 211 212 217 221 227 232 235 239 241 244 248 250 251 249 248 248 249 252 256 261 266 270 274 278 281 284 287 290 291 292 293 294 295 295 294 294
262 258 254 251 248 246 243 241 240 239 238 234 231 228 229 231 228 225 227 229 229 228 229 232 233 234 237 238 238 237 235 236 238 234 231 230 227 225 223 221 218 214 213 213 212 211 211 210 210 212 215 219 223 227 230 232 235 237 240 243 243 244 242 242 241 241 244 247 252 257 261 266 270 275 278 283 287 290 292 294 295 295 294 294 296
266 265 260 254 250 248 247 245 243 241 239 236 234 232 230 233 233 227 226 229 230 229 230 232 234 235 236 236 235 235 233 232 234 230 227 227 224 223 222 221 219 215 214 214 214 213 212 211 211 213 216 219 224 226 228 231 233 235 238 240 241 241 240 239 238 236 237 239 243 248 252 257 262 267 272 276 281 286 290 293 294 293 293 295 296
270 265 260 256 252 250 250 248 245 242 241 239 237 238 235 234 234 229 227 230 232 232 231 231 233 235 235 235 234 232 232 231 230 228 225 224 222 220 222 221 218 215 215 215 215 215 213 211 213 216 218 221 224 226 229 229 232 237 239 242 245 246 245 243 244 242 240 240 242 245 249 253 256 261 267 272 277 283 287 291 291 290 292 293 293
271 265 261 260 256 252 252 250 248 244 243 242 240 241 239 237 235 232 231 234 236 235 234 232 232 234 235 234 232 230 230 230 230 228 223 222 221 219 221 220 218 217 215 216 216 215 213 213 216 218 219 223 226 227 229 230 232 237 242 246 249 250 251 250 250 251 250 249 251 253 255 256 258 260 264 270 275 281 287 290 290 289 290 291 289
274 271 267 264 260 254 251 250 249 247 245 244 242 241 241 240 238 235 236 236 237 237 237 236 234 235 235 234 232 231 231 230 229 228 223 222 222 220 221 220 219 218 216 217 217 214 212 214 217 219 221 224 226 227 228 230 232 236 242 246 250 253 255 256 256 258 258 256 257 259 262 263 264 265 266 270 274 279 284 288 292 291 290 291 288
276 275 272 267 262 256 252 249 248 248 247 245 244 243 244 244 241 239 239 238 237 238 238 238 237 235 236 235 233 232 234 233 231 230 225 223 223 223 223 222 220 219 216 218 218 214 213 215 217 218 221 223 224 226 227 229 232 235 241 245 251 256 258 262 262 263 264 263 260 260 262 264 266 267 267 268 271 274 277 280 286 288 291 292 286
277 277 276 271 265 260 254 250 248 247 248 247 246 245 245 246 244 241 240 239 238 239 239 239 238 236 236 236 233 232 235 234 232 232 227 224 225 224 224 223 222 220 217 219 218 213 215 217 217 218 221 223 224 225 226 228 232 236 241 247 253 259 264 267 269 269 271 271 266 264 266 269 271 272 272 271 269 267 266 261 254 266 282 284 282
285 281 276 271 267 264 258 252 247 246 247 247 247 246 245 246 246 243 243 242 240 240 240 239 240 239 238 237 235 234 236 235 234 233 230 227 226 226 226 225 224 222 219 220 218 215 218 219 217 219 221 222 224 225 226 228 232 237 242 249 254 261 268 274 277 277 276 276 273 269 270 273 275 277 278 277 272 266 258 248 239 254 264 267 281
288 282 276 272 268 265 262 258 252 247 245 246 246 246 246 246 247 246 245 245 243 241 241 242 242 241 241 242 240 237 236 236 235 234 232 230 228 227 228 228 226 224 221 221 220 218 221 220 219 221 222 223 225 225 226 229 232 237 242 248 254 261 270 278 282 283 282 281 277 274 273 275 276 278 281 281 280 273 262 252 246 249 238 226 262
280 275 273 272 269 266 265 263 259 254 249 246 246 246 247 247 248 247 246 246 245 243 243 244 244 243 244 246 245 239 237 237 236 236 234 232 231 230 230 230 229 226 224 223 222 222 223 222 221 222 223 224 226 226 227 230 233 237 242 247 253 259 266 274 279 282 282 280 278 275 273 273 274 276 278 280 281 277 269 263 260 256 243 231 244
277 271 268 266 265 265 264 263 261 258 255 251 249 248 248 249 249 249 248 247 246 246 246 245 246 246 246 248 248 242 238 237 237 237 235 234 233 233 233 232 231 229 226 225 225 225 225 224 224 224 225 226 226 227 228 231 233 237 241 246 250 255 261 267 272 275 277 276 275 274 272 271 271 272 275 276 275 273 271 268 266 262 253 246 248
281 276 270 265 262 261 260 259 257 256 255 254 253 251 249 250 250 250 250 249 248 250 250 247 247 248 248 249 249 245 240 237 237 238 236 235 235 235 235 233 232 231 228 228 228 227 227 226 225 225 226 227 227 227 229 231 233 236 239 244 248 253 257 263 269 273 275 276 277 275 273 272 271 271 272 272 271 269 268 267 267 267 263 257 255
286 283 277 271 266 261 257 255 254 253 254 254 254 254 253 251 251 251 251 251 251 252 252 250 249 249 249 250 249 246 243 239 238 239 238 237 237 236 235 234 233 232 230 230 229 228 228 227 226 227 227 228 229 229 229 231 233 235 238 241 246 251 256 262 268 273 277 279 280 278 275 273 272 272 270 268 267 266 264 263 264 264 264 263 263
291 288 284 278 271 265 259 252 251 251 251 254 255 256 256 253 252 252 252 252 252 252 253 251 250 251 252 251 250 248 245 242 239 240 240 238 238 237 236 235 234 233 232 231 230 230 230 229 228 229 229 230 231 231 230 232 234 235 237 240 245 248 254 260 266 272 277 280 280 279 276 275 274 272 268 266 263 261 260 259 259 259 259 261 264
285 284 284 282 277 271 265 257 252 251 250 251 253 254 255 254 253 252 251 252 252 252 252 251 251 253 254 253 252 250 247 245 242 241 241 239 239 239 238 237 236 234 232 231 230 231 231 231 230 230 231 232 234 233 231 233 234 235 237 240 243 246 251 257 263 270 274 276 278 277 275 274 271 268 267 266 262 257 256 256 255 254 254 256 259
275 274 275 278 279 276 272 266 259 255 251 249 250 251 253 253 253 252 251 251 252 252 252 251 251 252 253 253 253 251 249 247 244 242 241 240 240 240 239 239 238 236 234 231 230 231 232 232 232 233 233 234 235 234 232 234 235 236 238 239 241 244 249 254 259 264 267 270 271 272 272 270 266 265 265 265 262 257 255 254 255 254 254 255 256
271 265 265 267 271 275 275 272 266 262 258 253 251 251 251 251 251 250 250 251 251 251 252 252 252 251 251 253 254 253 251 249 247 244 241 241 241 240 240 240 239 237 235 233 230 231 233 233 233 233 233 234 235 234 233 236 237 237 238 239 241 244 248 252 254 259 263 266 268 269 270 268 264 262 262 261 260 259 257 257 258 259 259 259 258
279 262 263 265 265 269 275 276 271 267 265 261 256 254 253 252 252 251 251 252 251 250 252 252 252 250 250 254 256 255 254 252 250 247 243 241 241 240 241 241 239 237 236 235 232 233 234 234 233 233 233 234 235 234 234 236 237 237 238 240 241 244 248 250 252 257 260 262 264 266 267 266 264 260 259 259 259 258 259 261 264 266 266 265 263
1 311 285 276 266 262 269 278 279 275 272 270 266 263 261 259 258 257 257 256 255 255 258 256 251 246 251 256 257 256 255 253 251 249 246 243 241 241 241 241 240 238 238 237 236 236 236 235 235 235 235 235 235 235 236 236 235 235 236 238 240 244 246 248 251 254 257 260 260 262 266 264 262 260 257 257 256 256 257 260 264 268 269 269 267
42 38 29 358 291 262 261 270 278 282 284 283 279 276 273 269 266 265 263 261 259 260 262 259 254 254 257 258 257 257 256 254 253 251 248 245 242 242 241 242 241 240 239 238 237 236 236 235 235 235 235 235 236 237 237 235 233 234 236 237 239 243 245 247 249 251 253 256 258 261 263 262 261 260 256 254 253 254 256 258 261 264 266 266 266
43 43 43 42 29 308 266 267 273 278 282 287 292 291 286 279 274 270 266 264 262 262 262 259 259 262 263 260 259 259 258 257 255 253 250 248 245 243 243 243 242 241 240 239 238 237 236 235 235 235 234 233 234 236 237 236 234 233 233 234 239 244 246 246 247 249 252 254 256 260 260 260 261 258 252 250 250 252 255 257 260 264 265 265 264
43 42 41 39 37 28 354 294 283 285 283 282 287 291 290 287 282 277 272 269 267 266 266 265 264 267 267 265 264 263 262 261 259 257 255 252 249 245 245 244 243 241 241 240 239 238 238 236 236 235 234 233 233 235 236 235 233 230 227 227 234 241 244 249 250 248 250 252 255 257 257 258 258 254 249 248 250 253 256 259 262 264 264 265 265
46 44 42 39 35 29 20 7 330 311 302 292 285 281 282 285 286 284 282 278 275 273 273 272 272 272 273 273 272 271 269 267 265 264 261 257 253 249 246 245 244 242 241 241 240 240 239 239 237 235 235 235 235 236 236 234 232 230 227 222 220 224 231 243 249 246 247 250 251 253 253 256 256 251 248 249 252 255 259 263 266 266 261 261 265
48 47 46 44 41 36 30 22 11 359 332 309 300 295 290 289 289 290 290 288 285 284 282 280 279 279 278 278 277 276 274 272 270 268 265 261 258 254 250 247 245 244 242 241 241 241 240 239 238 237 237 237 236 236 236 236 233 230 229 228 228 230 230 234 235 237 247 248 246 248 250 253 253 250 250 251 254 258 261 264 268 268 260 257 263
48 48 47 46 45 42 38 32 25 17 3 346 331 322 316 309 303 298 294 291 289 288 287 286 284 283 283 283 282 281 279 277 275 272 268 265 260 257 253 250 248 245 244 242 242 242 241 241 240 239 239 237 236 236 237 237 232 229 231 232 233 235 233 233 232 230 239 245 244 246 250 252 251 250 251 253 256 259 261 263 266 267 259 255 260
48 47 46 45 44 42 38 35 32 26 18 8 357 347 338 325 318 314 308 301 296 292 288 286 287 288 288 288 289 288 287 285 282 279 275 270 265 260 256 253 250 248 246 244 243 243 243 242 241 240 239 238 236 237 238 238 235 233 233 233 233 235 234 235 238 235 234 244 250 250 250 250 249 250 251 253 256 258 259 261 262 262 258 255 258
48 47 46 44 44 42 38 35 33 30 25 19 11 2 351 339 331 324 317 311 306 301 295 290 292 295 295 295 296 294 294 292 290 287 282 277 272 265 260 257 253 251 249 247 245 244 245 244 243 241 240 239 238 237 238 239 239 238 236 234 234 235 234 234 237 238 236 240 249 252 251 247 247 251 251 251 255 258 259 259 259 260 259 257 257
50 48 47 46 45 41 36 34 32 29 26 23 18 12 4 354 345 334 321 311 303 300 297 294 295 298 300 301 301 299 299 297 295 293 289 285 280 272 265 261 258 254 252 250 248 245 245 245 245 244 243 241 240 239 238 239 242 241 239 238 237 234 234 233 234 237 237 238 243 250 253 250 253 258 254 251 254 257 258 258 258 257 257 257 256
50 49 49 48 44 39 35 32 30 27 24 22 20 16 12 5 355 345 335 324 312 301 295 294 294 296 299 302 303 303 302 301 299 298 295 292 287 281 274 267 262 258 254 253 251 248 247 247 247 246 245 243 242 241 239 238 240 241 240 240 240 239 238 238 239 240 239 238 240 243 250 254 255 258 258 253 252 254 255 256 256 255 254 255 255